Probability
0 0 0 0 0 0 0 0 0 0 0 0 0 0 0 0 0 0 0 0 0 0 0 0 0 0 0 0 0 0 0 0 0 0 0 0 0 0
0 0 0 0 0 0 0 0 0 0 0 0 0 0 0 0 0 0 0 0 0 0 0 0 0 0 0 0 0 0 0 0 0 0 0 0 0 0
0 0 0 0 0 0 0 0 0 0 0 0 0 0 0 0 0 0 0 0 0 0 0 0 0 0 0 0 0 0 0 0 0 0 0 0 0 0
0 0 0 0 0 0 0 0 0 0 0 0 0 0 0 0 0 0 0 0 0 0 0 0 0 0 0 0 0 0 0 0 0 0 0 0 0 0
0 0 0 0 0 0 0 0 0 0 0 0 0 0 0 0 0 0 0 0 0 0 0 0 0 0 0 0 0 0 0 0 0 0 0 0 0 0
0 0 0 0 0 0 0 0 0 0 0 0 0 0 0 0 0 0 0 0 0 0 0 0 0 0 0 0 0 0 0 0 0 0 0 0 0 0
0 0 0 0 0 0 0 0 0 0 0 0 0 0 0 0 0 0 0 0 0 0 0 0 0 0 0 0 0 0 0 0 0 0 0 0 0 0
0 0 0 0 0 0 0 0 0 0 0 0 0 0 0 0 0 0 0 0 0 0 0 0 0 0 0 0 0 0 0 0 0 0 0 0 0 0
0 0 0 0 0 0 0 0 0 0 0 0 0 0 0 0 0 0 0 0 0 0 0 0 0 0 0 0 0 0 0 0 0 0 0 0 0 0
0 0 0 0 0 0 0 0 0 0 0 0 0 0 0 0 0 0 0 0 0 0 0 0 0 0 0 0 0 0 0 0 0 0 0 0 0 0
0 0 0 0 0 0 0 0 0 0 0 0 0 0 0 0 0 0 0 0 0 0 0 0 0 0 0 0 0 0 0 0 0 0 0 0 0 0
0 0 0 0 0 0 0 0 0 0 0 0 0 0 0 0 0 0 0 0 0 0 0 0 0 0 0 0 0 0 0 0 0 0 0 0 0 0
0 0 0 0 0 0 0 0 0 0 0 0 0 0 0 0 0 0 0 0 0 0 0 0 0 0 0 0 0 0 0 0 0 0 0 0 0 0
0 0 0 0 0 0 0 0 0 0 0 0 0 0 0 0 0 0 0 0 0 0 0 0 0 0 0 0 0 0 0 0 0 0 0 0 0 0
0 0 0 0 0 0 0 0 0 0 0 0 0 0 0 0 0 0 0 0 0 0 0 0 0 0 0 0 0 0 0 0 0 0 0 0 0 0
0 0 0 0 0 0 0 0 0 0 0 0 0 0 0 0 0 0 0 0 0 0 0 0 0 0 0 0 0 0 0 0 0 0 0 0 0 0
0 0 0 0 0 0 0 0 0 0 0 0 0 0 0 0 0 0 0 0 0 0 0 0 0 0 0 0 0 0 0 0 0 0 0 0 0 0
0 0 0 0 0 0 0 0 0 0 0 0 0 0 0 0 0 0 0 0 0 0 0 0 0 0 0 0 0 0 0 0 0 0 0 0 0 0
0 0 0 0 0 0 0 0 0 0 0 0 0 0 0 0 0 0 0 0 0 0 0 0 0 0 0 0 0 0 0 0 0 0 0 0 0 0
0 0 0 0 0 0 0 0 0 0 0 0 0 0 0 0 0 0 0 0 0 0 0 0 0 0 0 0 0 0 0 0 0 0 0 0 0 0
0 0 0 0 0 0 0 0 0 0 0 0 0 0 0 0 0 0 0 0 0 0 0 0 0 0 0 0 0 0 0 0 0 0 0 0 0 0
0 0 0 0 0 0 0 0 0 0 0 0 0 0 0 0 0 0 0 0 0 0 0 0 0 0 0 0 0 0 0 0 0 0 0 0 0 0
0 0 0 0 0 0 0 0 0 0 0 0 0 0 0 0 0 0 0 0 0 0 0 0 0 0 0 0 0 0 0 0 0 0 0 0 0 0
Height
5562 5563 5563 5564 5565 5567 5568 5570 5573 5577 5581 5583 5584 5587 5590 5594 5597 5602 5606 5610 5613 5617 5622 5627 5631 5636 5641 5646 5651 5656 5660 5665 5669 5674 5678 5681 5685 5688
5547 5547 5548 5548 5549 5550 5552 5553 5555 5559 5563 5566 5567 5569 5572 5576 5579 5583 5587 5591 5595 5599 5603 5608 5612 5617 5622 5627 5632 5637 5642 5647 5652 5657 5661 5665 5669 5673
5531 5532 5532 5533 5533 5534 5535 5537 5539 5541 5545 5549 5550 5552 5554 5558 5561 5564 5568 5572 5576 5580 5583 5587 5592 5597 5602 5607 5612 5617 5623 5628 5633 5638 5643 5648 5652 5657
5516 5516 5516 5517 5518 5518 5519 5521 5522 5524 5527 5531 5533 5534 5537 5540 5543 5546 5550 5553 5557 5561 5564 5568 5572 5577 5581 5586 5591 5597 5602 5608 5613 5619 5625 5631 5635 5638
5501 5501 5501 5501 5502 5503 5504 5505 5506 5508 5510 5512 5516 5517 5520 5522 5525 5528 5531 5535 5538 5542 5545 5549 5553 5556 5561 5566 5571 5576 5582 5589 5595 5600 5604 5609 5615 5620
5486 5485 5485 5486 5487 5488 5488 5490 5491 5492 5494 5496 5499 5501 5503 5504 5507 5510 5513 5516 5520 5523 5527 5530 5534 5537 5542 5547 5553 5557 5562 5566 5572 5577 5583 5589 5594 5599
5471 5471 5471 5471 5472 5472 5473 5475 5475 5477 5478 5479 5482 5484 5486 5487 5490 5492 5495 5499 5502 5505 5508 5513 5516 5520 5523 5527 5530 5535 5540 5545 5551 5556 5562 5567 5573 5578
5458 5458 5457 5457 5457 5458 5459 5459 5460 5461 5463 5464 5466 5468 5470 5471 5472 5474 5478 5482 5486 5490 5490 5494 5497 5501 5504 5508 5511 5515 5520 5524 5530 5535 5540 5546 5551 5557
5445 5445 5444 5444 5444 5444 5444 5445 5446 5446 5447 5449 5450 5451 5453 5456 5457 5459 5461 5463 5467 5470 5472 5477 5479 5482 5485 5488 5492 5496 5500 5504 5509 5513 5519 5524 5529 5535
5433 5432 5432 5431 5431 5431 5431 5431 5432 5432 5433 5434 5436 5437 5437 5438 5440 5442 5444 5447 5450 5452 5454 5458 5461 5464 5467 5470 5473 5476 5480 5484 5488 5493 5497 5503 5508 5514
5420 5420 5419 5419 5418 5418 5418 5418 5419 5419 5419 5419 5421 5422 5422 5423 5424 5426 5429 5431 5435 5437 5438 5441 5444 5447 5451 5453 5456 5458 5461 5465 5469 5473 5477 5482 5487 5492
5409 5408 5407 5406 5406 5404 5404 5405 5405 5405 5406 5406 5406 5407 5408 5410 5410 5412 5414 5416 5419 5422 5424 5425 5428 5430 5434 5438 5439 5441 5443 5446 5449 5453 5458 5462 5467 5471
5397 5396 5395 5394 5394 5393 5392 5392 5392 5392 5392 5392 5393 5394 5395 5396 5397 5398 5400 5401 5404 5407 5409 5410 5412 5414 5416 5420 5423 5425 5426 5429 5432 5436 5439 5444 5448 5452
5386 5385 5384 5383 5382 5381 5380 5380 5379 5379 5379 5379 5380 5381 5382 5383 5384 5385 5386 5387 5389 5392 5393 5395 5397 5399 5401 5404 5407 5409 5411 5413 5415 5419 5422 5426 5430 5433
5375 5374 5373 5372 5371 5370 5369 5368 5367 5367 5367 5367 5368 5368 5369 5370 5370 5372 5373 5374 5376 5378 5379 5381 5383 5384 5386 5388 5391 5393 5395 5397 5399 5402 5405 5409 5413 5416
5364 5363 5362 5361 5360 5359 5358 5357 5356 5355 5355 5355 5356 5356 5356 5357 5358 5358 5360 5361 5363 5365 5366 5367 5369 5370 5372 5374 5375 5377 5380 5382 5385 5387 5389 5393 5396 5400
5353 5352 5351 5350 5349 5348 5347 5346 5345 5344 5344 5344 5344 5344 5344 5345 5345 5346 5347 5348 5350 5352 5354 5355 5356 5357 5359 5360 5362 5364 5365 5368 5371 5373 5375 5378 5381 5384
5343 5342 5341 5340 5339 5337 5336 5335 5334 5333 5332 5332 5332 5332 5333 5333 5334 5334 5335 5336 5338 5340 5342 5343 5344 5345 5347 5348 5349 5350 5352 5354 5357 5359 5360 5363 5367 5369
5333 5331 5330 5329 5328 5327 5326 5325 5324 5323 5322 5321 5321 5322 5322 5322 5322 5323 5324 5325 5326 5328 5329 5330 5331 5332 5334 5337 5338 5338 5339 5341 5343 5345 5347 5349 5352 5356
5323 5322 5320 5319 5318 5317 5316 5315 5313 5312 5312 5311 5311 5311 5312 5312 5312 5312 5313 5313 5314 5316 5317 5318 5319 5320 5322 5324 5326 5327 5326 5328 5330 5332 5334 5335 5338 5341
5314 5313 5311 5310 5309 5307 5306 5305 5304 5303 5302 5302 5302 5302 5302 5302 5302 5302 5302 5303 5303 5304 5305 5307 5308 5309 5310 5311 5313 5315 5316 5315 5316 5318 5320 5323 5325 5327
5306 5304 5302 5301 5300 5299 5297 5296 5295 5294 5293 5293 5293 5293 5293 5293 5293 5293 5293 5292 5293 5294 5295 5296 5297 5298 5299 5300 5302 5303 5304 5305 5305 5306 5308 5310 5312 5316
5298 5296 5295 5293 5292 5290 5289 5288 5287 5286 5285 5285 5284 5284 5284 5284 5284 5283 5283 5283 5283 5284 5285 5286 5286 5287 5288 5289 5290 5291 5292 5293 5294 5296 5298 5299 5301 5304
Wind_Speed
55 55 55 56 55 56 57 58 58 58 58 58 61 62 62 63 63 63 63 63 64 65 66 66 67 67 67 66 66 65 63 63 62 60 59 58 56 55
55 55 55 56 55 56 56 57 57 58 58 58 60 61 62 63 64 64 64 64 65 66 68 68 69 69 70 69 68 68 67 66 65 64 63 61 59 58
54 54 54 56 55 55 55 56 57 58 58 58 59 60 61 62 62 64 65 66 65 66 67 68 69 70 71 71 70 70 69 68 68 67 65 64 63 61
52 52 53 54 54 54 55 55 56 56 57 57 58 60 61 61 61 61 63 64 64 65 67 68 70 70 71 72 72 72 71 70 70 69 68 67 66 65
50 51 51 52 53 53 53 53 54 55 55 56 56 58 60 60 60 61 62 62 62 64 65 66 68 69 70 71 72 72 72 71 71 70 70 70 69 68
48 49 49 50 51 51 52 52 53 53 54 54 55 56 58 59 59 59 60 60 61 62 63 64 65 66 68 70 71 72 73 73 72 72 72 72 71 70
46 47 48 48 48 49 50 51 51 51 52 53 53 54 56 57 58 58 58 59 60 61 62 62 63 63 65 67 69 70 72 72 73 73 73 73 73 73
44 45 47 47 46 47 47 48 50 51 50 50 51 52 54 55 56 56 57 57 58 59 60 61 61 61 63 65 67 68 70 71 72 72 73 73 73 73
43 43 44 44 44 45 46 47 48 49 50 50 49 50 52 53 54 54 54 55 55 56 58 59 61 61 61 62 64 66 68 69 71 71 72 73 74 74
41 41 42 42 43 43 44 45 46 47 48 49 49 49 49 51 53 53 53 53 53 53 54 55 57 58 59 59 60 62 64 66 68 70 71 72 73 73
40 40 40 40 41 42 43 44 45 45 46 47 48 48 49 50 51 52 51 52 51 51 52 53 54 55 56 57 58 59 61 63 65 67 68 70 71 72
38 39 40 40 40 41 42 42 43 44 45 46 47 48 47 47 49 50 50 50 50 50 50 52 52 54 54 54 55 57 58 60 61 63 65 67 68 70
36 37 38 39 39 39 40 40 41 42 43 44 45 45 46 46 46 48 48 48 49 49 50 52 52 52 52 52 53 54 55 56 58 59 60 62 64 67
35 36 36 37 37 38 38 39 40 40 40 42 43 43 43 43 44 45 46 47 47 47 47 49 50 50 50 50 50 51 53 54 55 57 58 60 61 63
35 35 35 36 36 37 37 38 38 39 39 40 41 41 41 42 43 45 45 45 45 45 46 46 47 48 49 49 48 48 49 50 52 54 55 56 58 59
34 34 34 34 35 36 36 37 38 38 38 39 40 40 40 41 42 43 44 45 44 44 44 44 44 45 46 47 47 47 47 47 48 50 52 53 55 56
33 33 34 34 34 34 35 36 37 37 37 38 38 39 39 39 40 41 42 43 42 42 42 42 42 43 44 45 45 46 46 46 47 48 50 51 52 53
32 32 32 32 32 33 34 34 35 35 36 36 36 36 37 37 38 39 39 40 40 40 41 42 42 42 42 42 43 43 45 45 46 47 48 49 50 52
31 31 31 31 31 32 32 33 33 33 33 34 33 34 34 35 36 37 37 38 39 40 40 41 41 41 41 40 40 42 42 44 45 45 46 47 48 50
29 29 30 30 31 31 31 32 32 32 32 32 31 31 32 33 34 34 34 35 37 38 39 39 39 40 40 39 38 39 41 42 43 44 44 45 46 47
28 28 29 29 29 30 30 30 30 31 31 30 31 30 30 30 32 32 32 33 34 35 36 37 37 38 39 38 37 37 39 41 41 41 42 43 43 44
27 27 27 28 27 28 28 28 28 28 28 28 29 29 29 29 30 30 31 31 32 33 33 34 35 36 37 37 36 36 37 38 39 38 38 39 39 40
26 25 25 26 26 26 27 27 26 26 27 27 28 28 28 28 29 29 29 30 30 30 31 32 32 33 34 35 35 35 35 36 36 37 36 36 36 36
Wind_Direction
265 265 265 264 262 261 260 260 259 256 254 253 253 253 253 251 251 250 251 250 249 249 249 248 247 247 247 248 249 249 249 250 249 250 251 251 251 251
265 265 266 264 263 262 261 260 259 258 256 254 254 254 253 252 252 252 252 251 251 250 250 249 248 248 248 248 249 249 249 249 249 250 251 251 251 251
266 266 265 264 263 262 261 260 260 260 258 256 254 254 253 253 253 253 252 252 252 251 251 250 249 248 248 248 248 248 248 249 249 249 250 251 251 251
266 266 266 264 263 263 262 261 261 260 259 256 255 255 254 253 253 252 252 252 252 252 252 252 251 250 249 249 249 249 249 249 249 250 250 250 251 251
266 266 266 264 263 263 262 261 261 260 260 258 257 256 255 254 253 252 251 251 252 252 252 252 252 252 251 250 249 249 249 249 249 250 250 250 250 251
266 266 266 264 263 263 262 262 261 261 260 259 258 256 256 255 254 253 253 252 252 252 252 253 253 252 251 250 250 250 249 249 249 249 249 249 249 249
267 266 266 265 265 264 263 263 263 262 261 261 259 257 255 255 254 253 253 253 253 253 253 253 253 252 251 251 250 250 249 249 249 248 248 248 248 248
268 267 267 266 266 265 263 263 264 263 262 261 260 257 255 255 254 253 253 253 252 253 253 253 253 253 252 251 251 250 250 250 249 249 249 249 248 248
269 268 267 266 265 265 264 264 263 263 263 262 261 259 257 256 255 254 253 253 252 252 252 253 253 253 253 252 251 251 251 250 250 249 249 249 249 248
270 269 268 266 266 265 265 264 264 263 263 262 262 261 259 257 256 254 253 253 253 252 252 253 252 253 253 252 252 251 251 251 251 250 250 250 249 249
270 269 268 268 267 267 266 266 265 264 264 263 262 261 260 259 257 256 254 253 253 253 253 253 252 252 252 252 252 252 252 252 252 251 250 249 249 249
270 270 270 269 268 268 268 267 266 265 264 263 261 259 259 259 258 256 255 255 254 253 253 253 253 254 253 253 254 254 254 253 252 251 250 250 250 250
272 272 272 271 270 269 269 268 268 266 264 262 260 260 259 259 258 257 256 256 255 255 255 255 255 255 255 255 255 255 254 253 251 250 250 250 250 250
273 272 272 272 271 270 271 270 268 266 264 263 261 260 260 259 258 258 257 256 256 256 256 256 256 255 255 255 255 255 254 252 251 251 250 250 250 249
274 273 273 272 272 272 271 271 269 267 265 264 262 261 260 260 259 258 256 256 256 257 257 256 257 257 257 257 255 254 253 252 252 251 250 250 250 249
275 273 273 274 274 273 272 272 270 268 266 264 263 262 261 260 260 259 257 256 256 256 256 257 257 258 258 258 257 255 253 252 252 251 251 251 250 249
276 274 273 274 274 274 274 273 271 270 268 266 265 263 261 260 260 259 257 256 256 256 255 256 257 258 259 259 259 256 254 252 252 252 251 251 250 249
277 275 274 274 274 274 274 273 272 270 269 267 267 265 263 262 261 260 258 258 257 257 256 256 258 258 259 259 259 257 255 254 253 254 254 253 251 249
277 276 275 275 275 275 275 273 272 272 270 268 267 265 263 263 262 261 261 260 259 258 257 258 259 259 259 259 258 257 256 255 255 256 256 254 251 248
279 278 277 276 276 276 276 274 273 272 271 268 267 266 265 264 263 262 262 261 260 259 258 259 259 259 259 260 258 257 257 257 257 257 256 254 252 249
281 280 279 278 278 278 277 276 274 272 270 267 266 266 267 266 264 263 264 264 263 261 259 258 258 258 258 258 258 258 257 257 257 257 256 254 252 249
284 282 281 280 279 279 278 277 275 273 270 268 267 267 267 268 266 264 265 266 265 263 260 258 258 258 257 258 259 258 257 257 257 256 256 254 251 248
286 285 284 282 280 279 279 277 274 273 271 269 268 267 268 268 267 266 267 267 266 263 261 259 258 258 258 258 258 259 257 255 255 255 255 252 250 247